This is the latest recevied weather packets stored in our database for station/object GW1546. If no packets are shown the sender has not sent any weather packets the latest 10 day(s).
| Time | Temp. | Humidity | Pressure | Rain* | Wind** | Luminosity | Snow |
|---|---|---|---|---|---|---|---|
| 1777143284 | 21.67° C | 72% | 982.7 hPa | 0.51 mm | - | - | - |
| 1777142900 | 21.67° C | 70% | 982.3 hPa | 0.51 mm | - | - | - |
| 1777140042 | 20° C | 80% | 982.7 hPa | 0.51 mm | - | - | - |
| 1777138609 | 20° C | 84% | 982.3 hPa | 0.51 mm | - | - | - |
| 1777132457 | 17.22° C | 93% | 983.7 hPa | 0.51 mm | - | - | - |
| 1777132131 | 16.67° C | 94% | 983.4 hPa | 0.51 mm | - | - | - |
| 1777131375 | 16.67° C | 94% | 983.4 hPa | 0.51 mm | - | - | - |
| 1777129214 | 16.67° C | 91% | 983.4 hPa | 0.51 mm | - | - | - |
| 1777128501 | 16.11° C | 95% | 983.4 hPa | 0.51 mm | - | - | - |
| 1777127450 | 15.56° C | 92% | 983.4 hPa | 0.51 mm | - | - | - |
| 1777123843 | 15° C | 89% | 983 hPa | 0 mm | - | - | - |
| 1777123476 | 15° C | 90% | 983 hPa | 0 mm | - | - | - |
| 1777121660 | 13.89° C | 93% | 983 hPa | 0 mm | - | - | - |
| 1777112681 | 12.22° C | 98% | 982.3 hPa | 0 mm | - | - | - |
| 1777105103 | 11.67° C | 98% | - | 0 mm | - | - | - |
| 1777104380 | 12.22° C | 97% | - | 0 mm | - | - | - |
| 1777101152 | 12.22° C | 98% | - | 0 mm | - | - | - |
| 1777098290 | 12.22° C | 97% | - | 0 mm | - | - | - |
| 1777094690 | 12.78° C | 95% | - | 0 mm | - | - | - |
| 1777092876 | 13.33° C | 94% | - | 0 mm | - | - | - |
| 1777090711 | 13.33° C | 94% | - | 0 mm | - | - | - |
| 1777080998 | 16.11° C | 89% | - | 0 mm | - | - | - |
| 1777079539 | 16.67° C | 87% | - | 0 mm | - | - | - |
| 1777074887 | 19.44° C | 77% | - | 0 mm | - | - | - |
| 1777074146 | 20° C | 74% | - | 0 mm | - | - | - |
* Rain since midnight (hover to see other rain measurements)
** Current wind speed in m/s (hover to see current wind gust speed)